sat.trackr.live / text

‹ back to catalog

STARLINK-30428

NORAD 57906 · 2023-146R

PAYLOAD ACTIVE UNKNOWN

§ Identity

Operator
Country
US
Launch date
2023-09-20
Launch site
AFETR
Launch vehicle
Mass (kg)
RCS (m²)

Purposes: comms

External: N2YO · Heavens-Above · Gunter

§ Orbital elements

Epoch: 2026-09-20T09:58:29.645760Z

Period
94.27 min
Inclination
43.0038°
Eccentricity
0.0001466
Mean motion
15.27572667 rev/d
Perigee alt
482.1 km
Apogee alt
484.1 km
Semi-major
6,861.2 km
B*
4.8324e-7
RAAN
294.7874°
Arg perigee
275.9584°
Mean anomaly
84.1100°
Rev number
16,577

§ Raw data

STARLINK-304281 57906U 23146R   26263.41562090 -.00000249  00000+0  48324-6 0  99912 57906  43.0038 294.7874 0001466 275.9584  84.1100 15.27572667165773

JSON: /api/v1/satellites/57906 · /tle

For live sub-satellite position, see the globe view (requires WebGL).

§ Visibility from observer

Set your observer location to see the next 7 days of passes ≥ 10°. The values pass through the URL so the page stays shareable.

No JS? Fill the form by hand. The geolocation button needs JavaScript.